Temp
20 21 20 20 17 15 16 18 17 17 18 18 19 19 16 14 17 16 14 15 17 17 17 16 17 17 17 18 18 17 17 17 17 16 16 17 17 17 17 17 17 18 18 18 18 18 17 17 17
21 21 20 19 15 16 15 15 16 16 17 18 18 17 15 15 14 14 14 15 16 16 16 16 17 17 17 18 18 17 17 17 17 16 16 17 17 17 17 17 17 17 17 18 18 18 18 17 17
21 20 20 13 11 15 15 15 15 15 16 16 15 14 14 13 14 14 14 15 15 15 16 16 16 17 17 17 17 17 17 17 17 16 16 16 17 17 17 17 17 17 17 17 17 17 17 17 17
20 20 19 14 15 15 15 15 16 17 16 17 15 15 14 14 14 14 14 15 15 15 15 16 16 16 17 17 17 17 17 16 16 16 16 16 16 16 16 17 17 17 17 17 17 17 16 16 16
20 19 13 13 15 15 15 16 17 16 15 15 16 14 13 14 14 14 14 15 14 15 15 15 16 16 17 17 17 17 16 16 16 16 16 16 16 16 16 16 16 16 17 17 17 17 17 17 17
19 17 12 13 15 15 15 16 16 16 15 15 15 15 13 14 15 15 16 16 15 15 15 15 15 16 16 16 16 16 16 16 16 16 16 16 16 16 16 16 16 16 16 16 16 16 16 16 16
15 12 13 12 14 14 15 15 16 15 15 14 15 15 13 13 14 16 16 16 16 15 15 15 15 16 16 16 16 15 15 15 15 16 16 15 16 16 15 15 15 15 16 16 16 16 16 16 16
19 12 13 14 13 15 15 15 16 16 14 14 16 14 13 13 14 15 16 15 15 15 15 15 15 15 16 16 16 15 15 15 15 16 16 15 15 15 15 15 15 15 15 15 15 15 16 16 16
18 12 12 14 13 14 15 14 15 15 14 15 15 15 15 13 13 13 15 14 14 14 14 15 15 15 15 15 16 16 16 16 16 16 16 16 15 15 15 15 15 15 15 15 15 15 15 16 16
14 12 13 14 14 14 15 14 15 14 14 13 14 14 16 13 13 13 13 14 14 14 14 14 14 15 15 15 15 16 15 16 16 15 15 15 15 15 15 15 15 15 15 15 15 15 15 15 15
14 14 14 15 16 16 14 14 14 14 14 14 13 13 12 12 13 14 14 14 14 14 14 14 14 14 14 15 14 14 15 15 15 15 15 15 15 15 15 15 15 15 15 15 15 15 15 15 15
17 15 15 14 16 15 13 14 13 13 13 14 14 13 13 13 12 12 13 13 13 14 14 14 14 14 14 14 14 14 14 14 14 15 14 14 14 15 15 15 15 15 15 15 15 15 15 15 15
16 13 14 14 15 14 15 12 11 10 13 13 12 12 12 11 12 11 13 13 12 13 14 14 14 13 14 13 13 14 13 13 13 14 14 14 14 14 14 15 15 15 15 15 15 15 15 15 15
13 12 12 14 14 13 11 12 13 10 11 11 12 12 11 11 12 12 11 12 12 13 13 13 13 13 13 13 13 13 13 13 13 13 13 12 13 13 13 14 14 15 15 14 14 14 14 14 14
13 11 11 12 13 12 14 12 10 10 11 10 10 11 11 11 11 11 11 12 12 13 12 11 13 12 12 12 12 12 13 13 13 13 13 12 12 12 12 12 13 14 13 13 14 13 14 14 13
11 11 10 12 13 13 13 12 10 10 11 9 11 11 10 10 11 11 10 11 12 13 14 12 13 12 11 12 12 12 13 13 13 12 12 11 11 11 12 12 12 12 12 13 13 13 13 13 13
10 9 10 12 12 11 12 10 11 11 10 9 9 10 11 10 10 10 10 9 11 13 13 11 11 11 11 11 11 11 12 11 11 11 11 11 11 11 11 11 12 11 12 12 12 12 12 12 12
10 9 10 10 11 12 10 10 9 11 11 10 10 9 10 11 10 10 10 10 9 10 10 10 10 10 10 10 10 11 11 10 10 11 11 10 10 10 10 11 11 11 11 12 12 12 12 12 12
11 10 10 11 11 11 10 9 9 10 10 9 9 9 9 10 9 9 9 10 9 9 10 10 10 10 10 10 10 10 10 9 10 10 10 10 10 10 10 10 11 11 12 12 12 12 12 12 11
12 10 11 11 11 11 9 9 9 8 9 9 9 9 9 9 9 9 9 10 10 9 9 9 9 9 9 8 9 9 9 9 9 9 9 10 10 10 10 10 11 11 11 11 11 12 12 12 12
12 12 10 11 10 8 9 9 9 10 10 10 9 10 10 11 10 10 9 10 10 9 8 8 9 9 9 8 8 8 8 9 9 9 9 9 9 10 10 10 10 10 10 11 10 10 10 10 10
12 12 12 10 11 10 10 9 8 8 9 9 10 10 10 10 10 10 10 9 9 9 9 9 8 8 8 8 8 8 8 9 9 9 9 8 9 9 9 9 9 9 10 10 9 9 9 9 8
14 12 12 11 9 9 10 10 10 9 8 8 9 9 10 10 10 10 10 10 9 8 9 8 8 7 7 7 7 7 8 8 8 8 8 8 8 9 9 9 9 9 9 8 8 8 8 8 8
12 12 11 10 9 8 10 10 8 7 10 11 11 9 10 10 9 9 9 8 8 8 8 8 7 7 7 6 6 7 7 8 8 8 7 8 8 8 8 8 8 8 8 8 8 7 7 7 6
13 11 8 8 7 8 10 9 11 10 10 11 11 10 10 10 10 9 8 8 8 8 7 7 7 7 6 6 6 6 7 7 7 7 8 8 8 8 8 7 8 8 8 7 7 7 7 7 7
11 11 8 10 8 9 10 9 10 11 12 13 13 10 9 10 10 9 9 9 8 8 7 7 6 6 6 6 6 6 6 7 7 7 7 7 7 7 7 7 7 7 7 7 7 7 7 6 6
12 11 11 9 9 9 9 10 12 12 11 11 11 10 8 10 10 9 9 9 8 8 7 7 6 6 6 6 6 6 6 7 7 7 7 7 7 7 7 7 7 7 6 6 6 7 7 6 6
12 12 10 7 8 10 8 9 10 11 10 8 8 8 7 8 9 9 9 9 8 8 7 6 6 6 6 5 6 6 6 6 6 7 7 7 7 7 7 7 6 6 6 6 6 6 6 6 6
12 11 8 8 8 10 7 8 8 11 9 8 9 9 8 8 8 9 9 9 8 7 7 6 6 6 6 6 6 6 6 6 6 7 7 7 7 7 6 6 6 6 6 6 6 5 6 5 5
11 11 10 9 6 5 7 9 11 10 9 9 9 8 7 7 8 9 9 8 8 8 7 6 6 6 6 6 6 6 6 6 6 6 6 6 6 6 6 6 6 6 5 5 5 5 5 5 4
Height
1494 1493 1493 1494 1506 1509 1519 1511 1505 1506 1507 1508 1508 1510 1517 1522 1522 1534 1533 1534 1536 1539 1541 1544 1545 1547 1548 1548 1548 1549 1548 1549 1549 1550 1551 1551 1551 1551 1552 1552 1552 1552 1552 1553 1553 1554 1554 1554 1553
1492 1492 1494 1494 1512 1522 1523 1508 1510 1508 1509 1509 1510 1515 1518 1526 1526 1530 1534 1535 1537 1540 1542 1545 1547 1548 1549 1549 1550 1550 1550 1550 1551 1552 1553 1553 1553 1553 1554 1554 1553 1553 1554 1554 1555 1555 1555 1555 1555
1490 1490 1493 1502 1518 1519 1519 1509 1510 1510 1509 1509 1515 1519 1524 1529 1530 1533 1535 1537 1539 1540 1543 1546 1548 1550 1551 1551 1551 1552 1552 1552 1553 1553 1554 1554 1554 1555 1555 1555 1556 1555 1555 1555 1556 1556 1556 1556 1556
1488 1491 1495 1506 1510 1508 1508 1507 1508 1507 1509 1510 1515 1522 1528 1530 1532 1534 1536 1538 1540 1542 1544 1546 1548 1550 1552 1552 1553 1553 1553 1554 1554 1555 1555 1556 1556 1556 1556 1556 1556 1556 1557 1557 1557 1557 1558 1558 1558
1488 1490 1506 1510 1508 1505 1505 1507 1506 1508 1513 1516 1516 1526 1531 1532 1533 1535 1537 1539 1542 1544 1546 1547 1549 1551 1552 1554 1554 1555 1555 1555 1556 1556 1557 1557 1558 1558 1558 1557 1557 1557 1557 1557 1558 1559 1559 1559 1559
1488 1491 1512 1516 1508 1504 1506 1507 1507 1510 1514 1516 1520 1527 1534 1533 1535 1538 1540 1540 1542 1544 1547 1548 1550 1551 1552 1554 1556 1556 1556 1556 1556 1557 1557 1558 1558 1559 1559 1559 1559 1559 1558 1558 1558 1558 1559 1559 1559
1488 1497 1509 1511 1509 1508 1506 1507 1507 1509 1513 1515 1517 1529 1536 1536 1536 1539 1541 1541 1543 1545 1548 1549 1550 1551 1552 1553 1555 1556 1556 1556 1556 1557 1557 1558 1559 1559 1559 1559 1559 1558 1558 1558 1558 1558 1558 1558 1558
1486 1492 1507 1507 1510 1507 1507 1508 1508 1509 1513 1515 1515 1522 1530 1537 1539 1541 1543 1544 1544 1546 1549 1550 1550 1551 1552 1553 1554 1556 1556 1556 1557 1558 1558 1559 1559 1559 1559 1559 1559 1559 1559 1559 1559 1558 1558 1558 1558
1486 1500 1511 1506 1507 1503 1505 1508 1510 1511 1512 1514 1519 1519 1526 1538 1541 1542 1543 1546 1547 1548 1550 1551 1551 1552 1552 1553 1554 1555 1557 1557 1558 1558 1558 1559 1559 1559 1559 1559 1559 1559 1559 1559 1558 1558 1558 1557 1557
1487 1500 1499 1493 1495 1498 1503 1505 1509 1512 1514 1517 1519 1522 1525 1534 1537 1541 1543 1545 1548 1549 1551 1553 1552 1553 1553 1554 1555 1556 1557 1557 1558 1558 1559 1559 1559 1558 1558 1559 1559 1559 1559 1558 1558 1558 1558 1558 1557
1487 1495 1491 1491 1491 1494 1500 1505 1509 1512 1518 1515 1514 1519 1523 1529 1532 1535 1542 1545 1548 1550 1552 1553 1553 1554 1555 1556 1557 1557 1558 1557 1558 1558 1559 1559 1559 1558 1558 1558 1558 1558 1558 1558 1558 1557 1557 1556 1556
1486 1487 1489 1490 1492 1495 1500 1505 1508 1512 1512 1514 1518 1522 1525 1530 1533 1537 1541 1543 1547 1550 1551 1552 1553 1554 1555 1555 1556 1557 1558 1557 1558 1558 1558 1558 1558 1557 1557 1557 1556 1556 1556 1556 1556 1556 1556 1555 1554
1484 1489 1490 1492 1493 1498 1501 1505 1509 1514 1516 1517 1517 1521 1525 1532 1536 1540 1542 1546 1549 1550 1550 1551 1553 1554 1555 1554 1555 1556 1557 1557 1557 1557 1557 1557 1556 1555 1555 1555 1554 1554 1554 1554 1553 1554 1553 1553 1552
1484 1488 1493 1497 1498 1501 1505 1510 1511 1519 1517 1517 1521 1526 1530 1536 1540 1542 1545 1546 1551 1549 1549 1550 1551 1553 1555 1553 1553 1554 1555 1556 1556 1555 1554 1554 1553 1553 1553 1552 1551 1551 1551 1550 1550 1550 1550 1549 1548
1485 1496 1498 1502 1503 1506 1506 1513 1518 1521 1520 1519 1526 1529 1532 1537 1541 1544 1545 1547 1550 1548 1548 1550 1550 1552 1554 1553 1552 1553 1554 1555 1555 1554 1552 1552 1551 1551 1550 1550 1549 1548 1548 1547 1547 1547 1546 1546 1545
1490 1496 1509 1505 1504 1509 1509 1521 1521 1522 1522 1524 1524 1532 1536 1538 1541 1544 1546 1546 1548 1547 1547 1550 1549 1551 1554 1554 1554 1553 1553 1554 1554 1553 1552 1551 1550 1549 1549 1548 1547 1546 1546 1545 1545 1544 1544 1542 1540
1495 1506 1508 1508 1506 1508 1512 1523 1521 1523 1524 1527 1531 1527 1535 1539 1540 1543 1546 1547 1543 1543 1548 1552 1550 1550 1554 1555 1556 1555 1553 1554 1552 1551 1551 1550 1550 1550 1549 1547 1546 1546 1544 1544 1543 1543 1542 1540 1538
1499 1505 1505 1506 1506 1508 1514 1517 1519 1521 1523 1524 1529 1536 1529 1535 1540 1542 1542 1545 1544 1547 1549 1551 1549 1549 1554 1556 1557 1556 1554 1554 1553 1552 1551 1551 1551 1550 1549 1548 1547 1546 1545 1544 1543 1542 1541 1539 1537
1487 1496 1501 1503 1502 1509 1515 1518 1520 1522 1525 1526 1529 1533 1536 1532 1541 1543 1542 1544 1545 1548 1548 1548 1546 1549 1555 1556 1557 1557 1555 1554 1554 1552 1551 1551 1552 1551 1550 1549 1548 1547 1545 1544 1543 1544 1541 1540 1538
1485 1494 1497 1501 1502 1506 1517 1520 1521 1522 1523 1525 1528 1532 1536 1534 1537 1541 1542 1542 1544 1546 1546 1545 1547 1551 1554 1556 1557 1557 1556 1555 1553 1553 1553 1553 1553 1552 1551 1551 1550 1548 1547 1546 1545 1543 1542 1540 1539
1483 1486 1496 1497 1504 1510 1514 1523 1522 1520 1522 1524 1526 1528 1529 1530 1534 1537 1540 1542 1544 1546 1546 1547 1548 1552 1552 1555 1556 1556 1557 1556 1554 1553 1554 1555 1555 1553 1553 1552 1553 1551 1549 1547 1547 1544 1541 1541 1541
1483 1477 1484 1494 1500 1515 1508 1527 1522 1516 1516 1519 1521 1521 1522 1526 1531 1535 1538 1541 1542 1545 1546 1547 1548 1551 1552 1555 1557 1557 1556 1556 1556 1556 1556 1557 1556 1553 1555 1554 1553 1553 1551 1549 1549 1547 1543 1543 1542
1471 1473 1482 1488 1501 1506 1512 1519 1508 1512 1519 1514 1509 1513 1517 1521 1525 1530 1534 1538 1541 1543 1545 1548 1548 1550 1552 1556 1556 1557 1556 1556 1558 1558 1557 1558 1557 1556 1556 1556 1556 1554 1552 1551 1551 1549 1546 1544 1544
1466 1476 1488 1495 1503 1520 1503 1510 1515 1512 1497 1494 1502 1505 1511 1517 1523 1529 1533 1537 1540 1542 1545 1547 1546 1548 1551 1554 1555 1556 1557 1557 1558 1559 1559 1559 1559 1559 1558 1558 1556 1554 1553 1553 1552 1551 1549 1546 1543
1462 1477 1510 1519 1521 1517 1502 1510 1493 1486 1486 1485 1486 1494 1502 1511 1519 1525 1530 1534 1537 1540 1543 1546 1544 1546 1549 1553 1555 1556 1558 1557 1559 1560 1558 1560 1560 1561 1560 1559 1558 1557 1556 1554 1553 1552 1551 1548 1545
1462 1467 1494 1498 1514 1508 1500 1507 1489 1474 1475 1479 1485 1492 1499 1507 1513 1519 1525 1529 1533 1537 1540 1542 1543 1545 1548 1550 1553 1556 1558 1558 1559 1559 1559 1560 1561 1562 1562 1560 1559 1560 1558 1557 1556 1553 1551 1549 1547
1461 1468 1465 1491 1497 1504 1500 1487 1474 1469 1471 1474 1481 1485 1489 1498 1505 1513 1520 1526 1530 1534 1537 1540 1543 1546 1546 1550 1554 1557 1558 1557 1558 1559 1559 1561 1561 1563 1563 1562 1561 1560 1560 1558 1555 1552 1551 1549 1548
1442 1453 1475 1490 1505 1499 1501 1493 1486 1470 1470 1471 1476 1477 1483 1491 1499 1507 1515 1521 1528 1532 1536 1539 1543 1545 1547 1551 1554 1556 1556 1556 1558 1560 1561 1561 1561 1563 1564 1563 1562 1562 1561 1558 1554 1553 1551 1549 1548
1445 1453 1465 1473 1485 1488 1508 1494 1466 1459 1461 1464 1465 1468 1474 1482 1490 1500 1509 1518 1525 1530 1534 1538 1541 1544 1547 1549 1552 1553 1554 1556 1558 1560 1561 1562 1562 1563 1564 1564 1563 1562 1560 1557 1554 1553 1551 1550 1549
1430 1441 1450 1468 1495 1494 1489 1484 1457 1456 1456 1460 1465 1469 1475 1482 1490 1498 1506 1514 1521 1527 1531 1536 1539 1542 1545 1547 1549 1551 1554 1556 1557 1559 1561 1563 1562 1563 1564 1564 1563 1561 1558 1556 1554 1553 1552 1550 1547
Wind_Speed
5 7 5 3 3 4 1 2 1 3 3 4 8 4 11 17 3 4 11 7 17 17 18 17 16 14 14 13 12 12 13 14 13 13 13 12 12 12 12 11 11 11 10 10 9 8 9 8 9
3 3 1 2 4 3 4 5 3 3 9 14 18 9 12 5 8 12 12 12 17 17 18 17 16 14 13 11 11 11 12 13 13 12 11 10 10 10 10 10 11 11 11 10 8 7 7 7 7
3 0 3 4 4 4 3 3 4 11 15 8 6 12 5 3 10 6 10 14 15 18 19 18 16 14 12 10 10 11 11 12 12 12 11 10 9 9 9 9 9 10 11 11 9 8 6 6 5
2 2 4 4 4 3 4 5 12 5 16 12 10 8 7 8 4 10 13 14 16 19 19 18 16 14 11 10 10 10 10 10 11 11 10 9 8 8 8 8 9 9 8 7 7 6 5 4 4
2 3 4 3 2 3 4 5 6 7 7 10 9 5 5 10 12 13 14 17 16 17 18 17 15 13 11 10 9 9 9 9 10 9 8 7 7 8 8 8 8 8 8 7 6 5 3 2 1
2 3 4 3 2 3 1 6 11 13 18 14 13 9 5 13 13 12 12 16 16 16 16 15 15 13 12 11 9 8 9 10 10 9 8 8 8 9 9 9 8 7 6 6 5 4 3 2 2
5 4 6 5 5 2 3 8 9 12 10 2 16 5 4 12 15 15 15 16 16 16 16 16 15 15 13 12 10 9 10 10 10 9 8 8 8 9 10 8 7 7 5 4 3 2 1 0 1
3 4 5 2 6 4 3 2 7 13 5 16 14 7 6 12 15 17 16 16 16 16 16 16 16 15 14 12 11 10 10 10 9 7 6 6 7 7 6 4 5 5 5 4 3 2 1 1 1
3 4 4 7 7 5 11 4 3 6 20 9 8 26 22 21 18 17 17 15 15 15 14 14 14 15 14 13 12 11 9 8 7 5 5 6 5 5 4 4 2 1 0 1 1 2 2 1 1
4 4 10 7 7 7 13 9 10 6 13 7 17 24 29 31 26 20 18 18 15 14 12 11 12 12 12 12 11 10 9 8 7 6 5 5 4 3 2 3 4 6 6 6 5 4 4 4 3
4 4 5 2 15 20 12 8 4 18 1 9 29 32 35 30 29 24 19 16 14 13 12 11 9 9 9 9 8 8 7 7 7 7 7 7 6 5 5 7 8 8 10 10 9 8 7 9 10
4 4 4 11 16 16 11 16 12 2 5 20 26 32 31 28 21 19 18 16 14 14 12 11 10 9 8 6 6 7 6 7 10 10 9 9 9 9 10 10 11 10 11 11 11 12 12 13 14
3 2 8 10 17 16 14 9 7 10 16 27 31 32 30 26 21 18 15 11 10 11 11 11 10 10 9 8 8 7 8 7 6 7 8 10 9 8 10 11 12 13 14 15 16 17 18 18 18
6 12 10 12 12 9 11 8 5 9 24 28 31 28 25 20 17 14 11 12 10 10 11 10 9 8 10 11 10 9 9 10 11 13 15 15 11 11 12 13 13 14 15 14 14 15 16 16 15
11 8 8 6 4 5 12 5 3 20 25 28 30 29 25 21 16 14 13 12 10 10 9 9 8 7 6 6 7 6 6 6 7 7 6 6 7 9 10 9 11 12 13 11 12 12 12 13 13
6 6 6 3 3 6 3 2 3 19 25 23 32 27 23 21 17 13 13 10 10 6 5 6 8 6 4 3 3 2 1 2 2 3 3 2 2 3 5 7 7 7 8 9 11 11 11 10 10
5 6 5 4 5 4 3 4 6 17 21 21 19 30 24 18 16 13 13 10 7 3 8 11 10 7 3 2 2 3 3 3 4 5 5 6 6 5 5 4 5 5 6 7 7 8 7 6 3
5 7 3 6 8 3 4 4 8 19 21 24 22 20 25 18 14 11 8 5 8 10 13 13 10 7 4 2 2 3 4 4 5 6 7 7 6 6 6 6 7 7 7 7 7 9 9 6 3
6 8 7 3 5 5 1 5 8 13 15 20 22 20 20 22 16 13 9 5 7 11 11 10 7 6 4 3 1 2 4 6 6 8 8 8 8 8 8 8 9 10 10 13 13 13 12 13 5
7 7 4 4 4 5 4 2 2 7 6 20 26 25 23 21 18 13 9 7 7 9 8 9 10 9 6 3 2 3 4 6 7 9 9 10 9 10 11 11 12 13 14 14 16 17 18 19 18
4 11 6 7 5 5 7 2 4 4 8 17 23 25 25 24 22 17 13 9 8 9 11 10 10 10 8 4 4 1 2 4 7 8 8 10 10 12 12 13 13 15 16 18 19 20 21 21 20
6 6 11 14 7 5 3 4 6 10 12 10 23 28 29 26 22 18 15 14 11 10 10 10 11 11 8 6 4 3 1 3 6 8 10 11 11 13 13 14 14 15 17 18 20 20 21 20 22
6 14 10 9 6 6 2 2 5 8 8 13 25 32 32 30 27 23 20 16 13 10 9 11 12 12 10 8 6 4 4 6 9 10 10 10 12 13 13 13 13 15 17 19 19 20 21 22 21
8 10 7 5 3 1 8 6 4 8 20 23 20 30 37 35 30 25 21 17 17 14 12 12 14 13 11 8 6 5 5 8 10 10 10 11 11 12 12 12 13 15 16 17 19 19 20 21 22
6 8 3 1 1 4 4 4 11 9 8 16 27 31 38 38 35 31 27 24 20 17 13 13 13 14 13 11 9 7 8 10 10 9 9 9 9 10 10 10 11 13 15 17 18 18 19 20 21
6 8 6 5 4 3 4 7 6 10 21 28 25 26 33 39 39 36 31 27 24 19 14 12 13 15 13 11 10 11 10 10 10 9 9 8 8 8 9 9 10 12 14 15 16 17 18 20 20
5 5 8 7 3 4 4 7 7 5 6 13 22 33 39 43 45 41 35 30 26 21 16 12 14 15 14 14 13 13 12 10 9 8 8 7 7 7 7 8 8 9 11 13 16 18 19 20 20
9 10 4 3 7 4 3 6 6 4 8 8 14 28 35 41 46 44 38 33 27 21 17 14 13 14 16 15 13 13 11 10 9 9 8 6 6 6 5 6 6 8 10 13 16 19 20 20 20
4 4 4 6 3 6 3 6 7 12 10 15 19 30 39 44 48 48 42 35 29 24 21 17 16 17 17 15 15 13 11 10 10 8 7 6 5 4 3 5 6 7 9 13 17 18 19 19 19
6 8 7 6 5 0 5 6 2 4 6 14 12 20 29 37 42 46 43 38 32 27 24 20 17 17 15 15 14 13 12 11 10 9 8 6 5 3 2 3 5 8 11 14 16 18 18 19 21
Wind_Direction
327 310 314 169 57 67 315 35 96 78 84 48 117 123 113 39 45 136 146 134 162 155 152 148 144 141 139 135 128 123 122 126 125 120 116 112 108 104 98 95 94 97 106 104 102 96 90 91 100
311 307 284 149 90 69 282 303 115 14 122 101 87 84 49 64 55 106 142 141 155 156 152 150 147 145 144 143 138 133 129 129 131 127 123 118 113 109 105 102 104 106 108 110 109 102 93 89 91
283 358 137 93 117 153 172 16 123 73 86 81 98 58 62 39 62 103 143 146 150 153 151 152 149 148 147 149 143 137 131 131 131 128 123 119 117 115 109 101 100 107 118 122 121 118 113 109 114
247 113 70 91 152 176 145 137 135 108 67 68 106 77 74 73 90 134 136 145 150 149 152 151 152 151 153 154 148 141 134 131 129 126 120 112 106 109 111 107 103 99 100 107 118 125 126 129 140
216 96 58 80 135 119 149 116 101 93 92 67 101 67 68 92 115 134 142 142 150 149 153 154 155 152 152 151 148 142 133 129 124 119 112 107 104 98 95 96 98 99 103 107 111 115 108 97 79
126 95 78 178 163 94 87 138 107 109 119 105 67 90 63 132 143 144 153 149 149 153 159 158 156 154 150 148 144 137 133 131 126 123 117 110 108 100 90 81 77 78 83 90 104 119 135 149 174
128 88 168 161 152 143 210 164 145 140 138 153 137 91 111 152 157 154 155 152 152 155 159 161 159 154 151 148 145 143 142 140 143 142 134 122 116 110 107 100 98 94 91 90 83 71 58 293 264
156 95 109 196 180 200 182 116 157 135 88 126 142 155 137 166 162 159 159 155 152 153 158 160 157 153 151 152 152 151 152 155 156 150 145 140 124 120 115 103 103 85 72 78 74 54 310 261 272
140 71 157 195 172 162 148 137 116 116 138 115 136 149 165 161 164 157 160 161 159 157 158 156 155 155 156 156 158 163 162 159 161 163 170 173 159 155 170 165 157 182 326 316 328 348 2 357 359
98 125 196 182 164 164 151 136 137 127 140 115 136 147 165 167 165 165 165 167 172 168 164 162 158 158 162 166 168 171 174 171 178 177 173 178 175 176 227 260 282 303 296 301 286 293 293 296 296
135 165 176 182 168 153 135 119 113 131 168 187 153 142 153 160 161 171 169 171 176 181 182 171 161 173 170 185 183 183 192 194 196 203 215 228 235 229 247 262 273 294 298 288 289 297 287 287 292
118 128 162 153 159 152 139 132 120 122 160 172 157 155 159 164 158 148 154 157 170 179 183 187 185 182 181 178 188 223 230 233 232 235 235 244 249 256 259 270 272 281 282 288 293 297 300 300 301
117 96 91 133 146 125 132 90 118 101 140 151 157 160 158 156 154 151 152 151 163 176 175 182 193 195 195 203 208 223 237 248 258 260 264 259 256 263 275 274 274 274 280 285 291 295 295 297 296
115 100 94 108 102 108 117 119 76 144 138 142 158 157 151 147 149 151 157 157 175 169 169 166 176 188 205 213 209 226 242 257 265 271 276 273 274 277 275 278 285 282 286 289 292 293 292 293 292
110 88 51 33 75 105 97 23 53 157 147 129 141 149 145 147 149 152 151 162 176 165 167 166 165 166 187 194 203 220 244 266 282 283 279 274 270 268 278 274 278 284 286 304 303 301 299 301 301
88 65 114 269 99 139 85 180 141 161 148 140 146 151 154 155 159 167 171 161 153 154 179 198 187 165 169 163 146 129 0 317 334 357 3 356 338 318 307 301 303 306 310 307 302 306 308 304 298
14 150 126 139 193 126 98 137 190 169 154 143 154 161 166 170 171 183 187 172 151 190 231 194 174 164 167 142 100 72 58 49 59 61 65 61 56 48 33 32 30 15 1 352 355 352 347 342 332
159 107 86 150 185 97 127 175 162 177 165 160 165 175 160 167 171 169 170 162 156 171 175 184 165 156 169 160 102 56 58 68 79 78 70 62 57 56 43 48 50 39 29 36 37 33 31 44 89
140 129 129 164 163 99 247 154 188 168 167 166 170 171 171 162 172 172 167 179 160 166 177 182 173 165 196 189 26 29 74 79 80 78 74 69 65 62 60 58 60 59 60 59 60 58 63 65 102
142 135 127 71 121 101 158 150 142 192 193 181 175 178 175 163 169 183 186 172 177 173 173 165 172 169 186 214 316 1 82 95 82 79 82 78 75 77 76 73 70 68 66 65 61 56 55 57 62
186 161 178 150 132 59 115 23 189 221 207 202 199 193 187 186 185 189 190 184 181 179 177 179 188 198 203 228 302 359 88 98 94 93 91 95 94 91 84 77 68 64 61 57 55 54 51 50 53
165 194 138 138 127 177 177 229 221 204 208 198 206 203 198 195 192 194 194 190 185 183 177 185 192 204 205 223 245 253 171 126 121 115 111 105 99 91 83 75 68 60 55 53 50 49 51 49 48
195 140 151 159 113 117 190 100 247 155 216 218 212 210 207 204 203 198 195 193 188 188 182 184 184 191 194 205 231 265 188 151 136 124 118 111 96 88 81 74 68 61 54 50 47 44 43 43 41
127 99 53 61 82 93 200 154 249 182 209 221 212 208 209 205 200 199 191 189 188 188 190 190 187 189 194 209 215 214 188 148 136 129 125 108 97 89 82 76 68 61 56 51 46 42 41 40 37
129 115 92 23 279 214 155 138 238 217 233 206 206 201 203 204 199 193 192 190 193 190 187 191 188 187 189 197 198 190 171 148 148 134 116 106 98 93 85 77 68 61 55 50 47 43 38 37 34
184 150 148 160 169 180 167 216 245 216 208 215 214 196 195 201 200 196 195 196 195 192 190 193 188 186 182 180 184 177 169 158 153 138 124 116 108 93 81 72 65 56 49 47 44 39 35 33 27
209 182 162 98 28 93 205 280 307 194 193 188 175 180 188 199 199 196 195 198 193 191 190 191 189 187 176 175 175 176 171 159 153 141 132 126 108 93 79 67 61 53 43 40 37 33 30 27 21
165 152 104 24 143 185 264 284 229 241 210 171 168 183 187 192 196 195 194 194 193 192 187 186 191 186 177 178 181 176 168 160 158 153 146 130 117 97 80 70 62 48 37 33 32 27 23 18 14
132 140 65 114 145 165 154 255 218 222 193 187 197 189 187 189 194 194 193 193 191 188 187 185 187 189 185 182 181 177 170 167 164 159 155 147 129 111 89 63 49 40 30 29 25 20 15 11 8
153 160 148 164 236 132 156 251 230 255 222 188 195 187 185 188 191 192 191 188 189 191 188 191 192 194 193 187 182 177 177 175 170 168 172 167 144 126 86 52 36 28 26 23 17 11 7 5 3